TimeMST,TemperatureF,Dew PointF,Humidity,Sea Level PressureIn,VisibilityMPH,Wind Direction,Wind SpeedMPH,Gust SpeedMPH,PrecipitationIn,Events,Conditions,WindDirDegrees,DateUTC
12:53 AM,7.0,1.0,77,30.31,10.0,Calm,Calm,-,N/A,,Overcast,0,2014-02-10 07:53:00
1:53 AM,8.1,1.9,76,30.31,10.0,Calm,Calm,-,N/A,,Overcast,0,2014-02-10 08:53:00
2:53 AM,9.0,3.0,77,30.30,4.0,Calm,Calm,-,0.00,Snow,Light Snow,0,2014-02-10 09:53:00
3:38 AM,6.8,3.2,85,30.06,2.0,North,3.5,-,0.00,Snow,Light Snow,10,2014-02-10 10:38:00
3:53 AM,7.0,3.0,84,30.32,2.5,Calm,Calm,-,0.00,Snow,Light Snow,0,2014-02-10 10:53:00
4:09 AM,6.8,3.2,85,30.05,2.5,Calm,Calm,-,0.00,Snow,Light Snow,0,2014-02-10 11:09:00
4:18 AM,6.8,1.4,79,30.05,3.0,Calm,Calm,-,0.00,Snow,Light Snow,0,2014-02-10 11:18:00
4:53 AM,8.1,3.0,80,30.31,4.0,WNW,3.5,-,0.00,Snow,Light Snow,290,2014-02-10 11:53:00
5:53 AM,8.1,3.0,80,30.32,9.0,Calm,Calm,-,0.00,,Overcast,0,2014-02-10 12:53:00
6:53 AM,8.1,3.0,80,30.35,10.0,Calm,Calm,-,0.00,,Overcast,0,2014-02-10 13:53:00
7:53 AM,9.0,3.9,80,30.35,10.0,South,3.5,-,N/A,,Overcast,180,2014-02-10 14:53:00
8:53 AM,10.0,3.9,76,30.36,10.0,Calm,Calm,-,N/A,,Overcast,0,2014-02-10 15:53:00
9:53 AM,10.0,3.9,76,30.37,10.0,Calm,Calm,-,N/A,,Mostly Cloudy,0,2014-02-10 16:53:00
10:53 AM,14.0,3.9,64,30.37,10.0,Calm,Calm,-,N/A,,Partly Cloudy,0,2014-02-10 17:53:00
11:53 AM,16.0,5.0,62,30.37,10.0,Calm,Calm,-,N/A,,Scattered Clouds,0,2014-02-10 18:53:00
12:53 PM,18.0,7.0,62,30.34,10.0,North,3.5,-,N/A,,Mostly Cloudy,360,2014-02-10 19:53:00
1:53 PM,19.0,7.0,59,30.32,10.0,Calm,Calm,-,N/A,,Mostly Cloudy,0,2014-02-10 20:53:00
2:53 PM,17.1,8.1,68,30.31,10.0,Calm,Calm,-,N/A,,Partly Cloudy,0,2014-02-10 21:53:00
3:53 PM,19.0,9.0,65,30.29,10.0,Calm,Calm,-,N/A,,Mostly Cloudy,0,2014-02-10 22:53:00
4:53 PM,19.0,9.0,65,30.27,10.0,Calm,Calm,-,N/A,,Clear,0,2014-02-10 23:53:00
5:53 PM,17.1,9.0,71,30.25,10.0,Calm,Calm,-,N/A,,Clear,0,2014-02-11 00:53:00
6:53 PM,16.0,9.0,74,30.25,10.0,West,5.8,-,N/A,,Clear,260,2014-02-11 01:53:00
7:53 PM,16.0,9.0,74,30.23,10.0,West,5.8,-,N/A,,Scattered Clouds,260,2014-02-11 02:53:00
8:53 PM,17.1,10.0,74,30.21,10.0,Calm,Calm,-,N/A,,Scattered Clouds,0,2014-02-11 03:53:00
9:53 PM,16.0,10.9,81,30.18,10.0,Calm,Calm,-,N/A,,Mostly Cloudy,0,2014-02-11 04:53:00
10:53 PM,17.1,10.9,77,30.16,9.0,WSW,3.5,-,N/A,,Overcast,240,2014-02-11 05:53:00
11:53 PM,12.9,9.0,84,30.15,8.0,East,3.5,-,N/A,,Partly Cloudy,90,2014-02-11 06:53:00